Location: Unspecified
(0.0000°N, 0.0000°E)
Time: 12:01:23
(UTC+01:00)

Ariane H10-3 - Visible Passes

Search period start: 01 November 2014 00:00
Search period end: 11 November 2014 00:00
Orbit: 220 x 22278 km, 7.1° (Epoch: 31 October)

Date Brightness Start Highest point End Pass type
(mag) Time Alt. Az. Time Alt. Az. Time Alt. Az.
01 Nov 5.2 05:41:19 14° WSW 05:45:19 53° SSE 06:10:53 10° E visible
02 Nov 6.5 14:52:03 10° W 19:52:51 79° N 20:05:28 24° E visible
03 Nov 5.8 20:26:19 10° W 21:56:49 76° WNW 21:56:49 76° WNW visible
04 Nov 4.3 04:48:29 37° S 04:49:11 40° SSE 05:00:41 10° E visible
04 Nov 7.5 23:44:50 10° W 23:47:36 14° W 23:47:36 14° W visible
05 Nov 7.2 13:42:35 10° W 18:45:15 79° N 19:09:15 10° E visible
06 Nov 5.8 16:18:50 10° W 20:55:27 82° N 20:59:55 53° E visible
07 Nov 6.1 03:50:55 16° ESE 03:50:55 16° ESE 03:52:52 10° ESE visible
07 Nov 6.6 22:26:43 10° W 22:48:58 39° W 22:48:58 39° W visible
08 Nov 5.3 05:39:44 13° WSW 05:43:55 56° SSE 06:11:54 10° E visible
09 Nov 6.6 14:45:19 10° W 19:44:57 81° N 19:58:19 20° E visible
10 Nov 5.6 19:47:27 10° W 21:45:38 87° NW 21:45:38 87° NW visible
